Location: Conflandey
(47.7287°N, 6.0456°E)
Time: 04:07:31
(UTC+00:00)

Cosmos 2344 - Pass Details

Date: 24 October 2021
Orbit: 1233 x 3009 km, 63.3° (Epoch: 05 December)

Event Time Altitude Azimuth Distance (km) Brightness Sun altitude
Rises 18:38:49 0° 318° (NW) 4,520 7.2 -22.1°
Reaches altitude 10° 18:41:25 10° 317° (NW) 3,675 6.6 -22.5°
Maximum altitude 18:50:34 76° 235° (SW) 1,916 4.5 -24.0°
Drops below altitude 10° 19:03:26 10° 153° (SSE) 5,026 6.3 -26.2°
Enters shadow 19:04:07 - 152° (SSE) 5,232 6.4 -26.3°
